Data No, UTC Date,UTC Time,Latitude,Longitude,Course(deg),Temp(degC),Sal(psu),pH
545,2019/5/18,9:04,42-36.89N,141-37.03E,208,7.2,31.0255,8.02
546,2019/5/18,9:05,42-36.66N,141-36.87E,199,7.186,31.0597,8.02
547,2019/5/18,9:06,42-36.39N,141-36.87E,173,7.983,31.1411,8.02
548,2019/5/18,9:07,42-36.15N,141-36.93E,171,7.335,30.9793,8.02
549,2019/5/18,9:08,42-35.88N,141-36.99E,169,7.424,31.0651,8.02
550,2019/5/18,9:09,42-35.62N,141-37.06E,168,7.684,31.1279,8.02
551,2019/5/18,9:10,42-35.34N,141-37.14E,168,7.92,31.1304,8.02
552,2019/5/18,9:11,42-35.08N,141-37.21E,169,7.822,31.0704,8.02
553,2019/5/18,9:12,42-34.81N,141-37.28E,170,7.39,31.1135,8.01
554,2019/5/18,9:13,42-34.54N,141-37.34E,170,6.742,31.213,8.01
555,2019/5/18,9:14,42-34.27N,141-37.39E,170,6.437,31.3583,8.01
556,2019/5/18,9:15,42-34.01N,141-37.45E,170,6.573,31.4973,8.02
557,2019/5/18,9:16,42-33.74N,141-37.51E,170,6.96,31.6136,8.01
558,2019/5/18,9:17,42-33.48N,141-37.57E,170,7.128,31.693,8.02
559,2019/5/18,9:18,42-33.21N,141-37.63E,170,7.364,31.7787,8.04
560,2019/5/18,9:19,42-32.94N,141-37.68E,173,7.218,31.8193,8.04
561,2019/5/18,9:20,42-32.66N,141-37.71E,175,7.283,31.8454,8.04
562,2019/5/18,9:21,42-32.41N,141-37.74E,175,7.075,31.7732,8.05
563,2019/5/18,9:22,42-32.15N,141-37.77E,175,7.52,31.7566,8.05
564,2019/5/18,9:23,42-31.89N,141-37.79E,175,7.195,31.8488,8.06
565,2019/5/18,9:24,42-31.62N,141-37.82E,175,6.754,31.8758,8.06
566,2019/5/18,9:25,42-31.36N,141-37.85E,175,6.804,31.8693,8.07
567,2019/5/18,9:26,42-31.10N,141-37.87E,175,7.059,31.8653,8.07
568,2019/5/18,9:27,42-30.83N,141-37.90E,175,6.512,31.8657,8.07
569,2019/5/18,9:28,42-30.57N,141-37.93E,176,6.432,31.8293,8.07
570,2019/5/18,9:29,42-30.30N,141-37.95E,176,6.475,31.8391,8.07
571,2019/5/18,9:30,42-30.04N,141-37.97E,176,6.513,31.8379,8.07
572,2019/5/18,9:31,42-29.78N,141-37.99E,176,6.451,31.8276,8.08
573,2019/5/18,9:32,42-29.51N,141-38.02E,176,6.526,31.8232,8.08
574,2019/5/18,9:33,42-29.24N,141-38.04E,176,6.489,31.8291,8.07
575,2019/5/18,9:34,42-28.98N,141-38.05E,177,6.394,31.8243,8.08
576,2019/5/18,9:35,42-28.72N,141-38.07E,177,6.567,31.8341,8.08
577,2019/5/18,9:36,42-28.44N,141-38.09E,176,6.72,31.8476,8.08
578,2019/5/18,9:37,42-28.17N,141-38.11E,177,7.055,31.8635,8.07
579,2019/5/18,9:38,42-27.92N,141-38.13E,177,7.102,31.8976,8.07
580,2019/5/18,9:39,42-27.66N,141-38.14E,177,7.137,31.9265,8.07
581,2019/5/18,9:40,42-27.39N,141-38.16E,177,7.092,31.9591,8.07
582,2019/5/18,9:41,42-27.12N,141-38.17E,177,7.145,31.9781,8.07
583,2019/5/18,9:42,42-26.86N,141-38.19E,177,7.426,32.0146,8.07
584,2019/5/18,9:43,42-26.60N,141-38.21E,176,7.685,32.0924,8.06
585,2019/5/18,9:44,42-26.33N,141-38.23E,177,8.4,32.1692,8.06
586,2019/5/18,9:45,42-26.06N,141-38.24E,177,8.44,32.2898,8.06
587,2019/5/18,9:46,42-25.80N,141-38.26E,177,8.539,32.3447,8.05
588,2019/5/18,9:47,42-25.53N,141-38.27E,177,8.882,32.3947,8.05
589,2019/5/18,9:48,42-25.27N,141-38.29E,177,9.065,32.467,8.05
590,2019/5/18,9:49,42-25.01N,141-38.30E,177,9.137,32.5422,8.05
591,2019/5/18,9:50,42-24.74N,141-38.31E,177,9.133,32.5982,8.05
592,2019/5/18,9:51,42-24.48N,141-38.33E,177,9.404,32.6296,8.05
593,2019/5/18,9:52,42-24.21N,141-38.34E,177,9.725,32.6709,8.05
594,2019/5/18,9:53,42-23.94N,141-38.36E,177,9.737,32.7356,8.06
595,2019/5/18,9:54,42-23.68N,141-38.37E,178,9.764,32.7739,8.06
596,2019/5/18,9:55,42-23.42N,141-38.38E,178,9.938,32.7971,8.06
597,2019/5/18,9:56,42-23.15N,141-38.39E,177,9.949,32.8271,8.06
598,2019/5/18,9:57,42-22.88N,141-38.41E,177,10.02,32.8442,8.06
599,2019/5/18,9:58,42-22.62N,141-38.42E,177,10.162,32.8577,8.06
600,2019/5/18,9:59,42-22.35N,141-38.43E,177,10.169,32.8717,8.06
601,2019/5/18,10:00,42-22.08N,141-38.45E,177,10.178,32.8746,8.06
602,2019/5/18,10:01,42-21.81N,141-38.46E,177,10.18,32.8837,8.06
603,2019/5/18,10:02,42-21.54N,141-38.48E,177,10.207,32.9045,8.06
604,2019/5/18,10:03,42-21.27N,141-38.49E,177,10.095,32.9291,8.05
605,2019/5/18,10:04,42-21.01N,141-38.50E,177,9.993,32.9361,8.06
606,2019/5/18,10:05,42-20.74N,141-38.52E,177,9.895,32.9296,8.06
607,2019/5/18,10:06,42-20.47N,141-38.53E,177,9.866,32.9188,8.06
608,2019/5/18,10:07,42-20.21N,141-38.55E,177,9.862,32.9112,8.05
609,2019/5/18,10:08,42-19.94N,141-38.56E,177,9.841,32.916,8.05
610,2019/5/18,10:09,42-19.67N,141-38.58E,177,9.919,32.9099,8.05
611,2019/5/18,10:10,42-19.41N,141-38.59E,178,9.873,32.9067,8.06
612,2019/5/18,10:11,42-19.15N,141-38.60E,177,9.993,32.8985,8.05
613,2019/5/18,10:12,42-18.88N,141-38.62E,177,9.993,32.9045,8.05
614,2019/5/18,10:13,42-18.61N,141-38.63E,177,9.921,32.9159,8.05
615,2019/5/18,10:14,42-18.34N,141-38.64E,177,9.856,32.9141,8.05
616,2019/5/18,10:15,42-18.08N,141-38.66E,177,9.85,32.9176,8.05
617,2019/5/18,10:16,42-17.81N,141-38.67E,178,9.844,32.9287,8.05
618,2019/5/18,10:17,42-17.55N,141-38.68E,178,9.867,32.933,8.05
619,2019/5/18,10:18,42-17.28N,141-38.69E,177,9.862,32.9358,8.05
620,2019/5/18,10:19,42-17.01N,141-38.70E,178,9.852,32.9208,8.05
621,2019/5/18,10:20,42-16.74N,141-38.71E,178,9.91,32.9052,8.05
622,2019/5/18,10:21,42-16.48N,141-38.72E,178,10.038,32.9057,8.04
623,2019/5/18,10:22,42-16.22N,141-38.74E,177,10.091,32.9231,8.05
624,2019/5/18,10:23,42-15.95N,141-38.75E,177,10.083,32.9445,8.04
625,2019/5/18,10:24,42-15.69N,141-38.76E,178,10.065,32.9559,8.04
626,2019/5/18,10:25,42-15.42N,141-38.77E,177,10.083,32.9724,8.04
627,2019/5/18,10:26,42-15.15N,141-38.78E,177,10.174,32.9949,8.04
628,2019/5/18,10:27,42-14.89N,141-38.80E,177,10.309,33.027,8.04
629,2019/5/18,10:28,42-14.62N,141-38.81E,177,10.451,33.0722,8.04
630,2019/5/18,10:29,42-14.37N,141-38.82E,177,10.513,33.1004,8.04
631,2019/5/18,10:30,42-14.09N,141-38.83E,178,10.536,33.1248,8.04
632,2019/5/18,10:31,42-13.84N,141-38.84E,177,10.589,33.1336,8.04
633,2019/5/18,10:32,42-13.57N,141-38.85E,177,10.633,33.1368,8.04
634,2019/5/18,10:33,42-13.30N,141-38.87E,177,10.647,33.1448,8.04
635,2019/5/18,10:34,42-13.04N,141-38.88E,177,10.721,33.1558,8.04
636,2019/5/18,10:35,42-12.77N,141-38.90E,177,10.677,33.1634,8.04
637,2019/5/18,10:36,42-12.50N,141-38.91E,177,10.581,33.1427,8.04
638,2019/5/18,10:37,42-12.23N,141-38.93E,177,10.455,33.1003,8.03
639,2019/5/18,10:38,42-11.96N,141-38.95E,176,10.384,33.0536,8.04
640,2019/5/18,10:39,42-11.71N,141-38.97E,176,10.347,33.0439,8.03
641,2019/5/18,10:40,42-11.44N,141-38.99E,176,10.28,33.0094,8.04
642,2019/5/18,10:41,42-11.18N,141-39.01E,176,10.264,32.9849,8.04
643,2019/5/18,10:42,42-10.91N,141-39.03E,176,10.367,32.9836,8.04
644,2019/5/18,10:43,42-10.65N,141-39.05E,175,10.424,32.9925,8.04
645,2019/5/18,10:44,42-10.38N,141-39.08E,175,10.624,33.0159,8.04
646,2019/5/18,10:45,42-10.12N,141-39.10E,176,10.768,33.0803,8.04
647,2019/5/18,10:46,42-09.86N,141-39.13E,175,10.72,33.1304,8.04
648,2019/5/18,10:47,42-09.59N,141-39.16E,174,10.544,33.139,8.04
649,2019/5/18,10:48,42-09.33N,141-39.19E,175,10.442,33.1167,8.04
650,2019/5/18,10:49,42-09.06N,141-39.22E,175,10.306,33.0855,8.04
651,2019/5/18,10:50,42-08.79N,141-39.24E,175,10.275,33.0512,8.04
652,2019/5/18,10:51,42-08.52N,141-39.27E,175,10.289,33.0199,8.04
653,2019/5/18,10:52,42-08.26N,141-39.30E,175,10.297,32.9962,8.05
654,2019/5/18,10:53,42-07.99N,141-39.33E,175,10.329,33.0055,8.05
655,2019/5/18,10:54,42-07.73N,141-39.37E,174,10.517,33.038,8.05
656,2019/5/18,10:55,42-07.46N,141-39.40E,173,10.501,33.0775,8.05
657,2019/5/18,10:56,42-07.19N,141-39.44E,175,10.458,33.0732,8.05
658,2019/5/18,10:57,42-06.92N,141-39.47E,174,10.349,33.0866,8.06
659,2019/5/18,10:58,42-06.65N,141-39.50E,175,10.265,33.0537,8.06
660,2019/5/18,10:59,42-06.39N,141-39.53E,175,10.239,33.036,8.06
661,2019/5/18,11:00,42-06.11N,141-39.56E,174,10.237,33.0312,8.07
662,2019/5/18,11:01,42-05.84N,141-39.60E,174,10.22,33.0317,8.06
663,2019/5/18,11:02,42-05.58N,141-39.63E,174,10.239,33.0347,8.06
664,2019/5/18,11:03,42-05.29N,141-39.67E,174,10.204,33.0443,8.07
665,2019/5/18,11:04,42-05.04N,141-39.70E,174,10.102,33.0531,8.07
666,2019/5/18,11:05,42-04.77N,141-39.74E,174,10.293,33.068,8.07
667,2019/5/18,11:06,42-04.51N,141-39.77E,174,10.251,33.0761,8.07
668,2019/5/18,11:07,42-04.22N,141-39.81E,174,9.984,33.0336,8.07
669,2019/5/18,11:08,42-03.97N,141-39.83E,175,9.994,33.0555,8.07
670,2019/5/18,11:09,42-03.69N,141-39.86E,175,9.969,33.003,8.07
671,2019/5/18,11:10,42-03.42N,141-39.90E,174,9.842,32.9751,8.07
672,2019/5/18,11:11,42-03.15N,141-39.93E,174,9.73,32.9472,8.08
673,2019/5/18,11:12,42-02.88N,141-39.97E,174,9.654,32.9712,8.08
674,2019/5/18,11:13,42-02.61N,141-40.00E,175,9.56,32.8859,8.08
675,2019/5/18,11:14,42-02.34N,141-40.02E,175,9.394,32.8443,8.08
676,2019/5/18,11:15,42-02.08N,141-40.05E,175,9.436,32.6589,8.09
677,2019/5/18,11:16,42-01.82N,141-40.08E,174,9.407,32.5982,8.1
678,2019/5/18,11:17,42-01.55N,141-40.12E,174,9.278,32.4422,8.1
679,2019/5/18,11:18,42-01.28N,141-40.15E,175,9.37,32.4699,8.1
680,2019/5/18,11:19,42-01.01N,141-40.18E,175,9.298,32.5191,8.1
681,2019/5/18,11:20,42-00.75N,141-40.21E,174,9.191,32.5365,8.11
682,2019/5/18,11:21,42-00.48N,141-40.24E,174,9.22,32.5023,8.1
683,2019/5/18,11:22,42-00.22N,141-40.27E,174,8.655,32.3854,8.1
684,2019/5/18,11:23,41-59.93N,141-40.31E,174,8.421,32.387,8.11
685,2019/5/18,11:24,41-59.67N,141-40.34E,174,8.565,32.3984,8.11
686,2019/5/18,11:25,41-59.41N,141-40.37E,175,8.702,32.3565,8.11
687,2019/5/18,11:26,41-59.14N,141-40.40E,174,9.17,32.2303,8.11
688,2019/5/18,11:27,41-58.87N,141-40.43E,174,9.075,32.0993,8.11
689,2019/5/18,11:28,41-58.59N,141-40.47E,174,9.093,32.0031,8.11
690,2019/5/18,11:29,41-58.33N,141-40.50E,174,9.149,32.0152,8.11
691,2019/5/18,11:30,41-58.04N,141-40.54E,174,9.041,31.9305,8.1
692,2019/5/18,11:31,41-57.78N,141-40.57E,174,7.988,31.8983,8.11
693,2019/5/18,11:32,41-57.50N,141-40.61E,174,8.199,31.9399,8.1
694,2019/5/18,11:33,41-57.24N,141-40.64E,174,8.013,31.9348,8.11
695,2019/5/18,11:34,41-56.96N,141-40.67E,174,7.749,31.8569,8.11
696,2019/5/18,11:35,41-56.68N,141-40.71E,175,8.176,31.8281,8.12
697,2019/5/18,11:36,41-56.42N,141-40.74E,174,8.604,31.8477,8.12
698,2019/5/18,11:37,41-56.14N,141-40.77E,174,8.582,31.8362,8.12
699,2019/5/18,11:38,41-55.87N,141-40.81E,174,8.483,31.8215,8.12
700,2019/5/18,11:39,41-55.59N,141-40.84E,174,8.737,31.8232,8.12
701,2019/5/18,11:40,41-55.32N,141-40.87E,175,8.743,31.8004,8.12
702,2019/5/18,11:41,41-55.05N,141-40.90E,175,8.666,31.7798,8.12
703,2019/5/18,11:42,41-54.78N,141-40.93E,174,8.57,31.7611,8.11
704,2019/5/18,11:43,41-54.50N,141-40.96E,175,8.523,31.7611,8.11
705,2019/5/18,11:44,41-54.23N,141-40.99E,174,8.503,31.7731,8.11
706,2019/5/18,11:45,41-53.95N,141-41.02E,174,8.295,31.7783,8.11
707,2019/5/18,11:46,41-53.69N,141-41.05E,175,8.718,31.7798,8.11
708,2019/5/18,11:47,41-53.41N,141-41.08E,175,8.726,31.7327,8.11
709,2019/5/18,11:48,41-53.14N,141-41.11E,175,8.623,31.6957,8.11
710,2019/5/18,11:49,41-52.86N,141-41.14E,174,8.753,31.6894,8.11
711,2019/5/18,11:50,41-52.58N,141-41.17E,175,8.8,31.7176,8.11
712,2019/5/18,11:51,41-52.30N,141-41.20E,175,8.696,31.7625,8.11
713,2019/5/18,11:52,41-52.04N,141-41.22E,174,8.691,31.8546,8.11
714,2019/5/18,11:53,41-51.77N,141-41.25E,175,9.114,32.1003,8.11
715,2019/5/18,11:54,41-51.50N,141-41.29E,174,9.554,32.3531,8.11
716,2019/5/18,11:55,41-51.21N,141-41.32E,175,9.833,32.5072,8.1
717,2019/5/18,11:56,41-50.95N,141-41.34E,175,9.425,32.572,8.1
718,2019/5/18,11:57,41-50.68N,141-41.37E,175,9.33,32.6369,8.1
719,2019/5/18,11:58,41-50.42N,141-41.40E,175,9.459,32.6685,8.09
720,2019/5/18,11:59,41-50.14N,141-41.43E,175,9.527,32.6631,8.08
721,2019/5/18,12:00,41-49.87N,141-41.46E,175,9.6,32.6173,8.08
722,2019/5/18,12:01,41-49.62N,141-41.49E,174,9.549,32.5931,8.08
723,2019/5/18,12:02,41-49.35N,141-41.52E,174,9.587,32.6029,8.08
724,2019/5/18,12:03,41-49.08N,141-41.54E,175,9.426,32.6321,8.08
725,2019/5/18,12:04,41-48.81N,141-41.57E,175,9.357,32.65,8.07
726,2019/5/18,12:05,41-48.52N,141-41.60E,175,9.299,32.6674,8.07
727,2019/5/18,12:06,41-48.25N,141-41.63E,174,9.26,32.6883,8.07
728,2019/5/18,12:07,41-47.98N,141-41.66E,177,9.335,32.7095,8.08
729,2019/5/18,12:08,41-47.71N,141-41.66E,178,9.372,32.7272,8.08
730,2019/5/18,12:09,41-47.44N,141-41.67E,179,9.267,32.7244,8.07
731,2019/5/18,12:10,41-47.16N,141-41.67E,180,9.151,32.7019,8.07
732,2019/5/18,12:11,41-46.88N,141-41.66E,180,9.05,32.7124,8.07
733,2019/5/18,12:12,41-46.61N,141-41.66E,180,9.036,32.6982,8.07
734,2019/5/18,12:13,41-46.33N,141-41.65E,180,9.008,32.6575,8.08
735,2019/5/18,12:14,41-46.06N,141-41.65E,180,8.943,32.6465,8.07
736,2019/5/18,12:15,41-45.77N,141-41.65E,180,8.755,32.6688,8.08
737,2019/5/18,12:16,41-45.51N,141-41.64E,181,8.923,32.6863,8.08
738,2019/5/18,12:17,41-45.23N,141-41.62E,182,8.802,32.7033,8.08
739,2019/5/18,12:18,41-44.95N,141-41.61E,181,8.676,32.6394,8.08
740,2019/5/18,12:19,41-44.68N,141-41.59E,182,8.66,32.6477,8.08
741,2019/5/18,12:20,41-44.41N,141-41.58E,181,8.774,32.6361,8.08
742,2019/5/18,12:21,41-44.13N,141-41.57E,181,8.937,32.6354,8.07
743,2019/5/18,12:22,41-43.86N,141-41.55E,182,8.851,32.5422,8.07
744,2019/5/18,12:23,41-43.58N,141-41.54E,181,---,32.4351,8.08
745,2019/5/18,12:24,41-43.30N,141-41.53E,181,8.079,32.3767,8.07
746,2019/5/18,12:25,41-43.03N,141-41.52E,182,7.933,32.2773,8.08
747,2019/5/18,12:26,41-42.75N,141-41.49E,184,7.704,32.2169,8.08
748,2019/5/18,12:27,41-42.46N,141-41.46E,185,7.666,32.1854,8.09
749,2019/5/18,12:28,41-42.20N,141-41.43E,185,7.747,32.1656,8.09
750,2019/5/18,12:29,41-41.92N,141-41.38E,187,7.597,32.1389,8.1
751,2019/5/18,12:30,41-41.64N,141-41.32E,190,7.427,32.1058,8.1
752,2019/5/18,12:31,41-41.38N,141-41.25E,191,7.435,32.1087,8.11
753,2019/5/18,12:32,41-41.10N,141-41.17E,191,8.616,32.1381,8.12
754,2019/5/18,12:33,41-40.83N,141-41.09E,191,9.394,32.464,8.12
755,2019/5/18,12:34,41-40.56N,141-41.01E,193,9.488,32.6897,8.12
756,2019/5/18,12:35,41-40.29N,141-40.92E,193,9.373,32.7991,8.11
757,2019/5/18,12:36,41-39.99N,141-40.83E,192,9.618,32.7597,8.11
758,2019/5/18,12:37,41-39.75N,141-40.76E,193,9.802,32.7762,8.1
759,2019/5/18,12:38,41-39.47N,141-40.67E,193,10.005,32.8147,8.1
760,2019/5/18,12:39,41-39.18N,141-40.58E,193,10.13,32.8727,8.1
761,2019/5/18,12:40,41-38.92N,141-40.50E,193,10.246,32.9101,8.1
762,2019/5/18,12:41,41-38.65N,141-40.41E,193,10.472,32.944,8.09
763,2019/5/18,12:42,41-38.38N,141-40.33E,191,10.607,33.0085,8.08
764,2019/5/18,12:43,41-38.11N,141-40.29E,182,10.767,33.0784,8.08
765,2019/5/18,12:44,41-37.83N,141-40.29E,178,11.248,33.1353,8.07
766,2019/5/18,12:45,41-37.54N,141-40.31E,176,11.514,33.2884,8.07
767,2019/5/18,12:46,41-37.26N,141-40.35E,172,11.736,33.4008,8.06
768,2019/5/18,12:47,41-36.98N,141-40.41E,170,11.737,33.5055,8.06
769,2019/5/18,12:48,41-36.70N,141-40.47E,170,11.714,33.5439,8.06
770,2019/5/18,12:49,41-36.42N,141-40.53E,170,11.781,33.5774,8.07
771,2019/5/18,12:50,41-36.13N,141-40.59E,170,11.816,33.5878,8.07
772,2019/5/18,12:51,41-35.84N,141-40.66E,169,11.824,33.5984,8.07
773,2019/5/18,12:52,41-35.57N,141-40.73E,169,11.796,33.597,8.07
774,2019/5/18,12:53,41-35.29N,141-40.79E,170,11.792,33.5995,8.07
775,2019/5/18,12:54,41-35.01N,141-40.86E,169,11.777,33.601,8.07
776,2019/5/18,12:55,41-34.73N,141-40.92E,170,11.682,33.6048,8.07
777,2019/5/18,12:56,41-34.42N,141-40.99E,169,11.671,33.6075,8.07
778,2019/5/18,12:57,41-34.15N,141-41.06E,169,11.691,33.5977,8.07
779,2019/5/18,12:58,41-33.87N,141-41.12E,170,11.717,33.6159,8.07
780,2019/5/18,12:59,41-33.58N,141-41.18E,170,11.706,33.6244,8.07
781,2019/5/18,13:00,41-33.30N,141-41.25E,169,11.737,33.6307,8.07
782,2019/5/18,13:01,41-33.00N,141-41.32E,169,11.613,33.6399,8.07
783,2019/5/18,13:02,41-32.73N,141-41.39E,170,11.612,33.6385,8.07
784,2019/5/18,13:03,41-32.45N,141-41.45E,170,11.577,33.6403,8.07
785,2019/5/18,13:04,41-32.16N,141-41.52E,170,11.155,33.6251,8.07
786,2019/5/18,13:05,41-31.89N,141-41.58E,170,10.967,33.4981,8.07
787,2019/5/18,13:06,41-31.60N,141-41.64E,170,10.991,33.3983,8.07
788,2019/5/18,13:07,41-31.32N,141-41.71E,170,10.938,33.3772,8.07
789,2019/5/18,13:08,41-31.04N,141-41.77E,170,10.919,33.3614,8.07
790,2019/5/18,13:09,41-30.75N,141-41.83E,170,10.978,33.3508,8.07
791,2019/5/18,13:10,41-30.47N,141-41.89E,171,10.99,33.3681,8.07
792,2019/5/18,13:11,41-30.19N,141-41.95E,171,11.009,33.3813,8.07
793,2019/5/18,13:12,41-29.90N,141-42.01E,170,11.06,33.3903,8.08
794,2019/5/18,13:13,41-29.63N,141-42.07E,170,10.752,33.4092,8.07
795,2019/5/18,13:14,41-29.35N,141-42.15E,167,10.403,33.351,8.08
796,2019/5/18,13:15,41-29.08N,141-42.24E,166,10.254,33.2215,8.08
797,2019/5/18,13:16,41-28.81N,141-42.33E,166,10.177,33.1011,8.09
798,2019/5/18,13:17,41-28.54N,141-42.41E,166,10.122,33.0561,8.1
799,2019/5/18,13:18,41-28.26N,141-42.50E,166,10.111,33.0356,8.1
800,2019/5/18,13:19,41-27.99N,141-42.59E,166,10.163,33.0353,8.1
801,2019/5/18,13:20,41-27.72N,141-42.68E,165,10.189,33.0716,8.11
802,2019/5/18,13:21,41-27.44N,141-42.77E,165,10.251,33.1071,8.11
803,2019/5/18,13:22,41-27.16N,141-42.86E,166,10.289,33.1425,8.11
804,2019/5/18,13:23,41-26.88N,141-42.95E,166,10.321,33.1624,8.11
805,2019/5/18,13:24,41-26.60N,141-43.04E,166,10.318,33.1814,8.11
806,2019/5/18,13:25,41-26.32N,141-43.13E,166,10.444,33.2276,8.11
807,2019/5/18,13:26,41-26.03N,141-43.22E,165,10.538,33.2621,8.11
808,2019/5/18,13:27,41-25.75N,141-43.32E,165,10.581,33.2624,8.1
809,2019/5/18,13:28,41-25.47N,141-43.41E,165,10.629,33.249,8.1
810,2019/5/18,13:29,41-25.18N,141-43.51E,165,10.605,33.2362,8.1
811,2019/5/18,13:30,41-24.91N,141-43.61E,165,10.561,33.2012,8.1
812,2019/5/18,13:31,41-24.63N,141-43.70E,164,10.428,33.1625,8.1
813,2019/5/18,13:32,41-24.36N,141-43.80E,164,10.414,33.1181,8.1
814,2019/5/18,13:33,41-24.07N,141-43.91E,165,10.54,33.1077,8.1
815,2019/5/18,13:34,41-23.81N,141-44.00E,164,10.647,33.141,8.1
816,2019/5/18,13:35,41-23.54N,141-44.10E,164,10.675,33.192,8.1
817,2019/5/18,13:36,41-23.27N,141-44.20E,164,10.624,33.2086,8.1
818,2019/5/18,13:37,41-23.00N,141-44.30E,164,9.821,33.2066,8.1
819,2019/5/18,13:38,41-22.73N,141-44.40E,164,9.762,33.0983,8.1
820,2019/5/18,13:39,41-22.46N,141-44.50E,164,9.874,33.0164,8.1
821,2019/5/18,13:40,41-22.18N,141-44.61E,164,9.864,33.0135,8.1
822,2019/5/18,13:41,41-21.92N,141-44.70E,164,9.872,32.9948,8.1
823,2019/5/18,13:42,41-21.65N,141-44.80E,163,9.995,33.0294,8.1
824,2019/5/18,13:43,41-21.38N,141-44.91E,163,9.699,33.0608,8.1
825,2019/5/18,13:44,41-21.13N,141-45.01E,163,9.537,33.0207,8.1
826,2019/5/18,13:45,41-20.86N,141-45.12E,163,9.892,32.9719,8.1
827,2019/5/18,13:46,41-20.60N,141-45.22E,163,10.011,33.023,8.1
828,2019/5/18,13:47,41-20.34N,141-45.33E,163,10.2,33.058,8.11
829,2019/5/18,13:48,41-20.08N,141-45.43E,163,10.228,33.107,8.1
830,2019/5/18,13:49,41-19.82N,141-45.54E,162,10.189,33.1276,8.1
831,2019/5/18,13:50,41-19.55N,141-45.65E,162,10.231,33.1202,8.1
832,2019/5/18,13:51,41-19.29N,141-45.76E,162,10.29,33.1122,8.1
833,2019/5/18,13:52,41-19.01N,141-45.87E,162,10.351,33.1263,8.1
834,2019/5/18,13:53,41-18.77N,141-45.97E,162,10.222,33.1534,8.1
835,2019/5/18,13:54,41-18.51N,141-46.08E,161,10.546,33.1749,8.1
836,2019/5/18,13:55,41-18.25N,141-46.19E,162,10.745,33.2335,8.1
837,2019/5/18,13:56,41-17.98N,141-46.31E,162,10.814,33.2911,8.1
838,2019/5/18,13:57,41-17.71N,141-46.42E,162,10.872,33.3381,8.08
839,2019/5/18,13:58,41-17.45N,141-46.52E,162,10.913,33.3499,8.08
840,2019/5/18,13:59,41-17.18N,141-46.64E,162,11.056,33.3565,8.08
841,2019/5/18,14:00,41-16.91N,141-46.75E,162,11.274,33.3781,8.07
842,2019/5/18,14:01,41-16.63N,141-46.86E,163,11.43,33.4317,8.08
843,2019/5/18,14:02,41-16.37N,141-46.97E,163,11.553,33.4715,8.07
844,2019/5/18,14:03,41-16.10N,141-47.08E,163,11.615,33.507,8.07
845,2019/5/18,14:04,41-15.83N,141-47.18E,164,11.779,33.5346,8.06
846,2019/5/18,14:05,41-15.55N,141-47.28E,165,11.879,33.5598,8.06
847,2019/5/18,14:06,41-15.28N,141-47.37E,165,11.915,33.5754,8.06
848,2019/5/18,14:07,41-15.01N,141-47.47E,165,11.903,33.5847,8.05
849,2019/5/18,14:08,41-14.73N,141-47.56E,165,11.832,33.5902,8.05
850,2019/5/18,14:09,41-14.46N,141-47.65E,165,11.692,33.5901,8.05
851,2019/5/18,14:10,41-14.18N,141-47.74E,165,11.597,33.5864,8.05
852,2019/5/18,14:11,41-13.91N,141-47.83E,166,11.586,33.5819,8.06
853,2019/5/18,14:12,41-13.63N,141-47.92E,165,11.558,33.5819,8.05
854,2019/5/18,14:13,41-13.35N,141-48.02E,166,11.571,33.5799,8.06
855,2019/5/18,14:14,41-13.09N,141-48.10E,166,11.553,33.5762,8.06
856,2019/5/18,14:15,41-12.81N,141-48.19E,166,11.588,33.5727,8.06
857,2019/5/18,14:16,41-12.53N,141-48.28E,166,11.627,33.5706,8.06
858,2019/5/18,14:17,41-12.25N,141-48.36E,167,11.608,33.566,8.06
859,2019/5/18,14:18,41-11.98N,141-48.45E,166,---,33.5625,8.05
860,2019/5/18,14:19,41-11.70N,141-48.53E,167,11.595,33.557,8.06
861,2019/5/18,14:20,41-11.42N,141-48.62E,166,11.595,33.5544,8.06
862,2019/5/18,14:21,41-11.14N,141-48.71E,166,11.564,33.5519,8.07
863,2019/5/18,14:22,41-10.86N,141-48.79E,167,11.501,33.5529,8.08
864,2019/5/18,14:23,41-10.59N,141-48.87E,167,11.479,33.5491,8.08
865,2019/5/18,14:24,41-10.31N,141-48.96E,167,11.465,33.5514,8.08
866,2019/5/18,14:25,41-10.03N,141-49.04E,167,11.479,33.5558,8.09
867,2019/5/18,14:26,41-09.75N,141-49.12E,167,11.463,33.5545,8.09
868,2019/5/18,14:27,41-09.47N,141-49.20E,167,11.453,33.5547,8.09
869,2019/5/18,14:28,41-09.20N,141-49.28E,168,11.401,33.5579,8.08
870,2019/5/18,14:29,41-08.91N,141-49.35E,168,11.406,33.566,8.08
871,2019/5/18,14:30,41-08.64N,141-49.43E,168,11.368,33.5716,8.08
872,2019/5/18,14:31,41-08.35N,141-49.51E,168,11.35,33.5778,8.08
873,2019/5/18,14:32,41-08.08N,141-49.58E,167,11.455,33.582,8.08
874,2019/5/18,14:33,41-07.80N,141-49.66E,168,11.56,33.5956,8.08
875,2019/5/18,14:34,41-07.51N,141-49.75E,167,11.588,33.6036,8.08
876,2019/5/18,14:35,41-07.25N,141-49.82E,167,11.634,33.6052,8.08
877,2019/5/18,14:36,41-06.97N,141-49.90E,167,11.656,33.6055,8.08
878,2019/5/18,14:37,41-06.69N,141-49.98E,167,11.657,33.6003,8.08
879,2019/5/18,14:38,41-06.41N,141-50.06E,167,11.644,33.5946,8.08
880,2019/5/18,14:39,41-06.15N,141-50.14E,167,11.602,33.5855,8.08
881,2019/5/18,14:40,41-05.87N,141-50.22E,168,11.573,33.5711,8.07
882,2019/5/18,14:41,41-05.58N,141-50.30E,167,11.599,33.5567,8.08
883,2019/5/18,14:42,41-05.32N,141-50.38E,166,11.586,33.5566,8.08
884,2019/5/18,14:43,41-05.04N,141-50.47E,166,11.576,33.5577,8.07
885,2019/5/18,14:44,41-04.77N,141-50.56E,165,11.53,33.5601,8.07
886,2019/5/18,14:45,41-04.49N,141-50.65E,165,11.472,33.5622,8.08
887,2019/5/18,14:46,41-04.20N,141-50.75E,165,11.405,33.5647,8.08
888,2019/5/18,14:47,41-03.93N,141-50.84E,165,11.357,33.5617,8.08
889,2019/5/18,14:48,41-03.65N,141-50.94E,164,11.35,33.5507,8.07
890,2019/5/18,14:49,41-03.39N,141-51.03E,164,11.306,33.5395,8.08
891,2019/5/18,14:50,41-03.12N,141-51.12E,165,11.28,33.5178,8.08
892,2019/5/18,14:51,41-02.84N,141-51.22E,165,11.276,33.5041,8.08
893,2019/5/18,14:52,41-02.57N,141-51.31E,165,11.263,33.4935,8.08
894,2019/5/18,14:53,41-02.29N,141-51.41E,165,11.237,33.4804,8.08
895,2019/5/18,14:54,41-02.03N,141-51.50E,164,11.187,33.4716,8.08
896,2019/5/18,14:55,41-01.76N,141-51.60E,164,11.162,33.4536,8.08
897,2019/5/18,14:56,41-01.50N,141-51.69E,164,11.166,33.4348,8.08
898,2019/5/18,14:57,41-01.23N,141-51.79E,164,11.101,33.4314,8.08
899,2019/5/18,14:58,41-00.97N,141-51.89E,164,11.03,33.4154,8.08
900,2019/5/18,14:59,41-00.71N,141-51.98E,164,10.971,33.4036,8.08
901,2019/5/18,15:00,41-00.45N,141-52.08E,164,10.991,33.3794,8.08
902,2019/5/18,15:01,41-00.18N,141-52.18E,163,11.003,33.3749,8.08
903,2019/5/18,15:02,40-59.92N,141-52.28E,164,11.043,33.3762,8.08
904,2019/5/18,15:03,40-59.66N,141-52.38E,163,11.086,33.3756,8.08
905,2019/5/18,15:04,40-59.40N,141-52.48E,163,11.141,33.3855,8.09
906,2019/5/18,15:05,40-59.14N,141-52.58E,163,11.237,33.4143,8.08
907,2019/5/18,15:06,40-58.89N,141-52.68E,162,11.349,33.4358,8.08
908,2019/5/18,15:07,40-58.64N,141-52.79E,162,11.371,33.4611,8.08
909,2019/5/18,15:08,40-58.37N,141-52.90E,162,11.35,33.4888,8.08
910,2019/5/18,15:09,40-58.11N,141-53.00E,162,11.329,33.4928,8.08
911,2019/5/18,15:10,40-57.84N,141-53.11E,162,11.336,33.4939,8.08